Wind_Speed
34 33 31 30 31 31 30 28 30 30 34 38 42 44 48 50 52 53 55 51 47 47 49 55 60 65 73 75 82 87 75 72 61 45 37 40 45 47 44 40 40 43 50 51
35 34 33 31 31 30 29 30 31 32 36 41 44 44 49 50 52 53 52 47 46 47 49 55 60 66 73 75 80 87 78 72 65 46 40 41 49 43 34 26 33 40 47 50
36 35 35 32 33 33 33 34 33 35 38 41 45 47 50 50 51 52 47 45 44 45 49 53 60 67 72 75 79 86 82 75 70 54 45 42 36 30 27 22 25 32 41 47
41 39 37 34 33 34 35 35 36 37 40 44 46 50 48 48 48 53 45 44 43 43 48 50 59 65 71 74 77 83 84 80 75 59 43 41 31 16 13 13 19 26 35 44
44 44 41 38 37 36 34 34 35 38 41 44 46 48 48 45 47 50 44 40 41 42 47 49 56 61 69 73 77 82 84 82 78 58 49 45 41 27 19 6 10 20 32 42
47 47 47 41 38 37 36 35 35 38 42 45 45 45 45 46 45 47 40 37 40 40 45 51 56 58 67 71 75 81 84 83 76 62 54 53 54 39 23 9 10 16 25 36
52 50 51 48 43 41 41 36 37 39 43 43 44 44 42 44 42 42 38 38 40 40 43 49 55 56 63 70 74 78 80 83 80 68 58 52 56 45 32 12 3 14 22 33
53 53 52 52 49 44 45 42 40 40 43 45 45 44 40 38 38 39 39 39 39 43 41 46 53 54 59 65 72 73 77 81 80 73 62 55 54 51 37 23 10 12 21 29
58 57 57 55 51 48 46 46 44 43 44 45 45 42 39 33 36 38 38 39 39 43 40 44 50 53 55 60 68 73 74 76 82 78 72 61 55 53 40 33 21 8 20 20
64 63 60 58 55 53 51 49 49 47 44 44 40 41 36 32 32 36 39 40 40 42 43 42 47 51 52 56 62 69 74 74 77 79 76 66 55 51 52 34 26 19 3 6
66 66 65 62 60 58 54 52 51 50 43 39 35 42 36 33 32 35 38 40 40 43 45 40 43 48 50 52 58 64 68 72 71 76 74 70 59 47 47 46 36 24 20 17
62 63 65 65 61 57 54 55 53 43 39 37 36 43 40 33 37 35 38 40 39 41 44 42 40 44 47 49 53 59 65 68 71 67 72 71 68 57 41 38 41 36 28 21
65 59 60 56 54 51 46 45 42 40 37 36 36 41 42 39 38 38 39 42 41 42 42 42 42 42 44 46 49 54 60 63 67 70 64 67 69 70 61 44 35 36 36 27
71 65 63 60 57 54 50 47 43 41 42 42 39 44 45 42 42 41 39 43 42 41 41 44 43 40 44 43 45 49 54 57 59 63 64 62 67 71 68 62 48 34 29 29
76 72 69 67 64 59 54 52 48 48 48 43 47 46 52 47 43 42 41 42 41 42 42 44 42 41 42 45 43 46 48 53 54 58 61 63 62 64 66 62 62 52 33 28
82 78 77 73 69 66 61 57 56 55 55 51 50 54 54 50 48 45 37 44 43 42 42 42 43 42 42 43 44 44 47 49 50 53 56 59 57 58 62 63 63 57 56 52
90 85 82 79 78 72 64 65 62 60 61 56 53 57 55 55 53 48 40 41 46 45 41 44 44 41 42 42 45 44 43 47 47 46 50 53 51 53 53 54 55 53 52 53
95 92 89 83 82 78 69 69 69 66 65 63 60 61 59 57 55 52 49 46 46 48 41 46 44 45 41 44 45 46 45 42 46 44 45 48 51 48 48 50 51 52 53 52
99 96 93 90 83 77 74 72 71 70 71 67 66 64 62 59 58 57 53 49 49 51 49 46 45 47 45 44 46 47 46 44 44 45 41 46 48 49 45 47 48 50 51 52
103 99 95 91 84 76 74 75 74 74 73 74 69 67 63 62 60 58 57 53 53 54 48 48 43 46 47 46 48 48 49 46 45 47 45 41 45 49 49 44 46 48 51 50
109 105 99 94 91 79 76 78 78 77 79 76 74 70 66 61 61 64 57 60 61 60 57 51 46 46 48 47 49 50 49 50 45 49 49 46 44 47 48 46 45 47 49 50
118 114 108 102 98 84 84 86 84 85 81 79 77 74 70 66 64 64 65 66 63 63 59 56 53 49 49 49 49 49 48 49 50 49 50 50 46 45 50 47 47 46 48 49
124 119 116 110 99 97 94 93 90 89 86 85 81 79 76 73 70 68 66 64 64 64 64 61 57 50 51 50 52 53 49 49 54 50 53 55 52 52 50 52 48 47 48 51
126 123 124 118 107 101 98 97 95 96 94 88 85 82 77 76 74 73 70 68 66 64 63 62 61 58 55 55 55 56 53 51 54 55 53 56 53 56 51 53 52 50 49 52
128 124 121 121 112 107 105 106 109 104 96 92 90 86 82 78 77 76 74 73 70 67 64 63 63 61 59 58 57 58 57 52 55 57 56 55 58 55 53 53 56 53 55 53
127 124 121 112 111 117 115 116 112 107 103 101 98 93 89 85 83 79 78 75 73 69 65 66 65 64 65 62 60 58 57 52 57 59 60 56 59 53 55 56 57 58 58 53
Wind_Direction
258 262 265 270 274 275 277 279 278 286 286 291 304 307 312 318 323 330 334 329 328 332 337 337 338 341 346 348 348 351 351 350 348 340 325 317 300 290 285 271 255 241 228 227
258 261 261 264 265 267 274 277 280 284 286 295 302 307 313 319 323 331 333 325 331 335 339 338 338 339 347 350 350 353 354 354 353 342 333 317 307 305 295 269 243 237 222 220
249 252 257 262 267 270 274 277 278 281 287 294 298 307 315 319 323 331 331 327 332 337 342 339 338 340 349 351 352 354 356 358 353 348 344 327 321 304 289 265 239 230 218 214
256 256 257 261 268 272 277 276 273 281 286 292 298 306 314 318 323 329 328 329 332 337 342 341 338 341 349 352 354 356 360 2 358 352 353 349 338 326 321 262 226 219 215 210
251 254 259 262 264 273 274 273 274 281 288 292 301 306 313 317 322 327 326 329 336 340 342 344 341 343 349 354 357 358 3 3 1 360 4 10 9 10 6 292 210 210 203 205
251 255 259 263 263 266 270 272 274 282 284 292 299 305 312 316 321 324 329 333 338 342 343 345 346 346 349 355 359 359 5 6 6 6 12 18 16 16 20 325 199 188 192 201
252 254 257 261 264 263 268 268 273 276 281 289 299 305 311 317 319 324 326 335 340 341 343 346 346 349 350 355 359 2 9 9 10 9 15 20 23 21 22 15 187 170 183 193
251 252 254 258 260 262 264 266 271 272 278 293 298 302 307 315 322 321 327 326 339 343 346 348 346 350 353 354 359 2 10 9 10 11 16 22 24 28 26 33 54 156 171 178
249 251 253 255 256 259 261 264 272 269 279 290 294 297 304 312 321 318 326 324 336 341 346 350 347 348 354 354 358 2 8 12 11 13 17 23 22 28 35 38 54 103 166 170
253 253 252 255 258 259 261 265 268 274 282 288 288 295 302 306 321 316 319 323 330 339 344 349 350 349 352 355 358 1 4 12 12 14 17 21 24 21 29 43 56 65 63 246
255 252 254 256 257 260 262 262 267 275 282 283 284 289 297 303 313 316 316 323 326 334 339 342 352 350 349 354 354 1 2 7 13 13 18 22 28 23 19 26 36 48 49 37
253 252 252 256 258 260 261 261 266 271 278 282 277 285 289 297 308 311 313 320 325 329 336 338 344 350 349 352 353 356 360 3 8 17 17 23 26 31 26 15 18 28 34 43
250 252 253 252 252 253 255 258 263 267 276 280 277 275 284 293 303 314 308 314 324 325 332 334 336 346 346 349 352 351 358 0 2 8 18 21 27 28 30 28 13 11 18 22
250 250 252 253 254 255 256 260 263 269 273 273 276 275 279 289 298 309 305 311 319 326 326 330 331 337 344 348 349 349 353 358 1 6 10 18 21 28 29 30 32 17 3 8
247 248 250 253 255 255 256 259 263 266 270 275 273 279 278 287 295 301 301 304 314 322 324 327 326 333 335 341 346 345 352 353 358 358 6 11 15 19 25 30 35 35 21 359
244 246 249 251 253 255 258 263 264 268 270 271 277 273 280 286 291 298 298 292 307 318 321 322 320 325 328 334 338 343 345 348 355 356 358 6 11 14 16 20 28 32 34 36
246 244 247 248 252 253 258 260 263 267 268 270 270 272 279 284 289 294 295 284 294 309 318 313 315 316 322 324 330 334 342 342 348 354 352 358 7 8 9 12 16 22 26 31
247 247 247 248 251 252 254 257 262 264 266 268 269 270 276 280 286 288 293 297 291 301 306 306 314 310 315 318 321 328 334 338 341 346 348 347 353 3 2 4 8 8 11 16
246 247 248 249 249 251 253 255 258 262 265 266 268 271 274 278 282 281 292 292 283 292 301 303 307 306 311 311 315 318 324 331 332 337 342 338 343 351 357 357 358 1 3 6
244 246 247 248 247 248 250 254 256 258 261 262 266 268 273 278 280 280 286 286 286 289 293 297 302 305 307 305 307 312 316 324 325 327 334 334 334 342 347 350 354 353 354 356
244 245 246 247 246 247 251 254 256 258 256 261 264 267 269 269 271 276 276 276 280 286 291 291 297 297 300 300 302 305 309 316 318 321 325 331 328 330 336 343 344 349 347 346
244 244 245 244 245 246 249 251 252 255 257 259 261 264 267 268 270 270 271 273 280 283 285 285 291 291 292 293 296 299 304 309 313 314 316 321 328 323 328 333 339 340 340 341
245 247 245 244 243 244 244 250 251 254 256 258 260 262 263 266 269 271 272 274 279 282 283 283 286 287 287 286 288 291 297 301 305 311 309 313 319 323 321 324 329 333 333 334
244 246 248 245 244 245 247 248 249 251 253 255 258 261 263 265 266 268 270 272 275 276 277 277 278 281 284 284 285 286 292 293 299 305 306 306 312 318 317 318 320 326 326 327
246 246 248 249 248 247 248 250 250 249 251 255 257 258 259 259 262 264 266 269 271 271 273 274 276 278 279 280 284 284 287 289 293 297 301 301 302 311 311 312 317 318 322 321
246 248 249 252 250 248 247 249 251 253 254 254 256 257 258 258 260 263 265 267 268 268 269 270 271 273 275 279 282 283 282 283 286 291 293 296 298 303 303 307 311 312 316 318
Height
10737 10738 10739 10740 10740 10740 10740 10738 10736 10735 10732 10730 10726 10724 10718 10712 10707 10702 10693 10684 10675 10665 10657 10646 10634 10622 10608 10589 10567 10547 10528 10507 10489 10475 10464 10452 10440 10432 10429 10431 10434 10442 10449 10457
10730 10731 10732 10733 10733 10733 10732 10731 10730 10728 10726 10723 10719 10717 10711 10706 10701 10695 10686 10678 10669 10660 10651 10640 10628 10615 10601 10584 10563 10542 10521 10500 10483 10469 10456 10441 10425 10415 10410 10412 10416 10422 10431 10440
10721 10723 10724 10726 10726 10726 10726 10724 10723 10721 10718 10716 10712 10710 10705 10699 10693 10688 10680 10671 10663 10654 10645 10635 10623 10608 10595 10580 10560 10541 10517 10495 10477 10461 10444 10426 10413 10403 10398 10399 10403 10408 10417 10426
10713 10714 10716 10718 10718 10718 10718 10716 10716 10714 10711 10709 10707 10701 10701 10693 10688 10682 10675 10667 10658 10650 10640 10630 10618 10604 10591 10576 10559 10538 10513 10492 10472 10454 10439 10419 10405 10395 10392 10391 10394 10400 10407 10418
10705 10705 10707 10709 10709 10709 10709 10709 10708 10707 10705 10701 10700 10695 10692 10687 10681 10676 10670 10663 10653 10645 10635 10625 10614 10602 10588 10574 10558 10539 10514 10491 10471 10450 10434 10417 10404 10392 10388 10390 10390 10394 10401 10412
10693 10695 10697 10700 10700 10700 10701 10701 10702 10700 10698 10695 10692 10688 10685 10680 10675 10669 10664 10658 10649 10640 10631 10622 10611 10599 10586 10573 10556 10537 10515 10494 10473 10454 10436 10422 10410 10399 10392 10392 10391 10394 10402 10412
10682 10685 10686 10688 10690 10691 10692 10692 10694 10693 10690 10688 10684 10679 10678 10673 10668 10664 10659 10653 10645 10636 10627 10618 10609 10598 10586 10570 10555 10540 10519 10498 10478 10461 10442 10428 10420 10407 10399 10397 10397 10400 10407 10414
10671 10673 10675 10676 10679 10682 10682 10683 10685 10685 10682 10679 10676 10673 10670 10666 10661 10658 10653 10648 10642 10633 10623 10615 10606 10596 10585 10571 10557 10542 10525 10506 10485 10466 10448 10435 10427 10418 10407 10404 10404 10407 10413 10418
10657 10660 10662 10664 10667 10671 10672 10673 10675 10676 10677 10673 10667 10664 10663 10660 10656 10651 10648 10643 10637 10630 10621 10611 10603 10594 10583 10572 10557 10543 10530 10512 10493 10473 10457 10440 10433 10428 10421 10415 10414 10418 10419 10423
10642 10645 10649 10652 10656 10659 10661 10663 10664 10666 10668 10666 10660 10655 10654 10654 10650 10645 10642 10638 10632 10626 10618 10609 10601 10592 10582 10572 10559 10546 10531 10518 10503 10485 10467 10452 10442 10435 10432 10428 10426 10427 10429 10430
10626 10631 10635 10640 10644 10647 10651 10652 10654 10656 10658 10658 10654 10645 10647 10647 10645 10640 10635 10631 10626 10621 10614 10606 10599 10590 10580 10571 10560 10549 10538 10524 10515 10497 10482 10467 10454 10445 10440 10437 10436 10435 10433 10435
10610 10616 10622 10626 10631 10635 10639 10641 10643 10646 10650 10648 10645 10636 10638 10640 10639 10635 10630 10625 10621 10616 10610 10602 10596 10590 10580 10570 10561 10549 10538 10527 10518 10511 10495 10480 10467 10455 10450 10446 10441 10440 10439 10439
10596 10605 10606 10613 10618 10623 10627 10629 10633 10637 10639 10637 10636 10629 10627 10631 10632 10629 10623 10620 10616 10611 10605 10598 10593 10588 10580 10571 10561 10553 10543 10532 10521 10509 10504 10492 10479 10465 10458 10453 10449 10446 10444 10444
10581 10592 10594 10598 10604 10609 10615 10617 10623 10626 10627 10625 10626 10621 10617 10621 10624 10622 10616 10612 10609 10604 10600 10594 10588 10584 10578 10571 10561 10554 10547 10538 10528 10520 10508 10498 10487 10477 10467 10459 10455 10455 10453 10450
10567 10575 10580 10584 10590 10596 10602 10606 10611 10612 10611 10617 10612 10614 10604 10613 10615 10614 10610 10604 10604 10598 10593 10589 10583 10578 10573 10567 10561 10552 10547 10541 10532 10523 10514 10502 10492 10483 10478 10471 10465 10458 10455 10453
10549 10558 10563 10569 10576 10582 10590 10596 10596 10597 10598 10604 10606 10596 10599 10602 10605 10606 10604 10593 10594 10592 10587 10583 10578 10572 10568 10563 10559 10551 10543 10539 10532 10525 10517 10508 10501 10495 10486 10479 10475 10469 10464 10458
10527 10541 10547 10556 10558 10569 10583 10578 10582 10584 10583 10590 10592 10584 10588 10588 10593 10594 10593 10588 10584 10584 10581 10576 10572 10567 10561 10558 10554 10549 10542 10536 10531 10525 10520 10513 10507 10500 10495 10491 10487 10481 10476 10471
10508 10519 10527 10540 10543 10556 10571 10565 10567 10571 10568 10575 10579 10573 10578 10580 10580 10578 10581 10580 10576 10576 10575 10568 10565 10561 10556 10551 10547 10544 10539 10534 10528 10523 10519 10514 10509 10503 10497 10492 10488 10482 10477 10472
10487 10497 10507 10516 10531 10543 10553 10553 10551 10554 10552 10558 10559 10561 10565 10569 10569 10563 10571 10571 10568 10566 10566 10561 10558 10553 10550 10545 10540 10537 10533 10529 10524 10519 10515 10511 10506 10501 10496 10490 10486 10480 10474 10469
10462 10474 10484 10499 10512 10526 10532 10535 10539 10539 10540 10535 10545 10548 10550 10554 10555 10552 10556 10558 10557 10556 10554 10553 10550 10546 10543 10539 10534 10529 10526 10523 10519 10515 10510 10506 10502 10498 10493 10487 10482 10475 10469 10465
10439 10448 10463 10474 10488 10512 10518 10515 10518 10523 10520 10525 10526 10532 10540 10542 10543 10539 10542 10544 10544 10545 10543 10542 10542 10537 10534 10531 10527 10524 10519 10516 10513 10509 10504 10501 10496 10492 10489 10484 10478 10472 10466 10460
10409 10419 10437 10451 10465 10499 10498 10491 10495 10494 10502 10509 10514 10517 10521 10526 10531 10530 10530 10531 10532 10531 10531 10530 10530 10527 10525 10522 10518 10515 10511 10508 10503 10501 10496 10493 10490 10485 10480 10476 10472 10467 10463 10457
10384 10397 10410 10423 10454 10463 10470 10471 10476 10477 10481 10486 10496 10502 10506 10510 10514 10516 10518 10518 10518 10517 10517 10517 10518 10517 10514 10512 10508 10505 10504 10499 10495 10491 10487 10483 10481 10477 10473 10468 10463 10459 10455 10451
10356 10369 10377 10395 10432 10446 10450 10452 10452 10450 10455 10470 10475 10482 10489 10495 10497 10496 10501 10503 10504 10505 10504 10504 10504 10504 10502 10500 10497 10493 10493 10490 10486 10482 10478 10474 10469 10466 10463 10458 10454 10450 10446 10441
10328 10338 10359 10375 10405 10422 10426 10422 10412 10424 10444 10452 10455 10463 10469 10476 10476 10478 10482 10485 10487 10488 10489 10490 10489 10489 10488 10487 10484 10483 10481 10479 10475 10472 10469 10464 10460 10457 10453 10448 10444 10439 10434 10430
10311 10328 10338 10363 10372 10369 10378 10382 10396 10411 10423 10428 10435 10444 10447 10453 10456 10459 10462 10465 10469 10470 10473 10473 10473 10473 10472 10472 10470 10469 10468 10467 10463 10460 10458 10455 10450 10447 10443 10438 10434 10429 10425 10420